Tracking 27107 objects as of 21-Mar-2023
HD Live streaming from Space Station
objects crossing your sky now

COSMOS 397 DEB

Track COSMOS 397 DEB now!
10-day predictions


NORAD ID: 5018
Int'l Code: 1971-015M
Perigee: 571.6 km
Apogee: 2,127.5 km
Inclination: 65.7 °
Period: 112.5 minutes
Semi major axis: 7720 km
RCS: 0.1181 m2 (medium)
Launch date: February 25, 1971
Source: Commonwealth of Independent States (former USSR) (CIS)
Launch site: TYURATAM MISSILE AND SPACE COMPLEX (TTMTR)

Note: This is SATELLITE DEBRIS
Your satellite tracking list
Your tracking list is empty




NASA's NSSDC Master Catalog

Two Line Element Set (TLE):
1  5018U 71015M   23080.10072384  .00000210  00000-0  13218-3 0  9997
2  5018  65.7108 140.6980 1007603 326.4031  27.6803 12.79767776427746
Source of the keplerian elements: AFSPC